[[{"header":{"parameterUnit":"m.s-1","parameterCategory":1,"la1":30.2991,"la2":30.254,"lo1":-89.0895,"lo2":-89.0444,"dy":0.0017,"dx":0.0017,"nx":28,"ny":28,"refTime":"2025-01-06T09:00:00:Z","depth":0,"parameterNumber":2,"parameterNumberName":"U-component_of_WINDS"},"data":[0,0,0,0,0,0,0,0,0,0,0,0,0,0,0,0,0,0,0,0,0,0,0,0,0,0,0,0,0,0,0,0,0,0,0,0,0,0,0,0,0,0,0,0,0,0,0,0,0,0,0,0,0,0,0,0,0,0,-1.2703,-1.2704,0,-1.2742,-1.2743,-1.2743,-1.2707,-1.2706,-1.2704,-1.2703,-1.2744,-1.2747,-1.2749,0,0,0,0,0,0,0,0,0,0,0,0,0,-1.2599,-1.2601,-1.2703,-1.2704,-1.2704,-1.2742,-1.2743,-1.2743,-1.2707,-1.2706,-1.2704,-1.2702,-1.2744,-1.2747,-1.2749,0,0,0,0,0,0,0,0,0,0,0,0,0,-1.2642,-1.2602,-1.2703,-1.2691,-1.269,-1.2742,-1.2743,-1.2743,-1.2708,-1.2706,-1.2703,-1.2701,-1.2743,-1.2746,-1.275,-1.2817,0,0,-1.2761,-1.2763,0,0,0,0,0,0,0,0,-1.2639,-1.2646,-1.2692,-1.2692,-1.2691,-1.2718,-1.2721,-1.2768,-1.2708,-1.2701,-1.2703,-1.27,-1.2737,-1.2741,-1.2754,-1.2819,-1.282,-1.2762,-1.2764,-1.2765,-1.2766,0,0,0,0,0,0,0,-1.2636,-1.2644,-1.2719,-1.2693,-1.2692,-1.2684,-1.2687,-1.273,-1.2731,-1.2702,-1.2699,-1.2704,-1.2737,-1.275,-1.2754,-1.2821,-1.2761,-1.2765,-1.2767,-1.2768,-1.2943,-1.2945,0,0,0,0,0,0,-1.2634,-1.2641,-1.2718,-1.272,-1.2659,-1.2687,-1.2691,-1.2711,-1.2731,-1.2731,-1.2706,-1.2702,-1.2745,-1.275,-1.2756,-1.2835,-1.2765,-1.2769,-1.2771,-1.294,-1.2943,-1.2946,0,0,0,0,0,0,-1.2632,-1.2642,-1.2716,-1.268,-1.2689,-1.2691,-1.2714,-1.2713,-1.2727,-1.2734,-1.2734,-1.2719,-1.2743,-1.275,-1.2802,-1.2836,-1.277,-1.2774,-1.2937,-1.2941,-1.2944,-1.2995,0,0,0,0,0,0,-1.263,-1.2641,-1.2666,-1.2681,-1.2691,-1.2761,-1.2716,-1.2716,-1.2733,-1.2729,-1.2746,-1.2747,-1.2742,-1.2796,-1.2805,-1.284,-1.2777,-1.2934,-1.2939,-1.2943,-1.2991,-1.3,-1.3009,0,0,0,0,0,-1.2626,-1.268,-1.2668,-1.2677,-1.2722,-1.2763,-1.2769,-1.2762,-1.2736,-1.2762,-1.2766,-1.2747,-1.2831,-1.2802,-1.2812,-1.2848,-1.2932,-1.2938,-1.2943,-1.2987,-1.2998,-1.3008,0,0,0,0,0,0,-1.267,-1.2681,-1.2668,-1.2728,-1.2745,-1.2757,-1.2789,-1.2774,-1.2799,-1.2794,-1.2784,-1.2788,-1.2843,-1.285,-1.2818,-1.2914,-1.2877,-1.2885,-1.2907,-1.2918,-1.2927,-1.2925,-1.278,0,0,0,0,0,-1.2686,-1.2718,-1.2726,-1.2778,-1.2787,-1.2787,-1.2805,-1.2797,-1.2814,-1.2822,-1.283,-1.2848,-1.2878,-1.2898,-1.2926,-1.2991,-1.2995,-1.3021,-1.303,-1.3037,-1.3044,-1.3079,-1.3091,-1.2963,-1.2963,-1.2963,0,0,-1.2721,-1.2731,-1.2752,-1.2788,-1.28,-1.2834,-1.2793,-1.2831,-1.2856,-1.2827,-1.2876,-1.2883,-1.2902,-1.296,-1.2986,-1.2968,-1.308,-1.3044,-1.305,-1.3053,-1.3086,-1.3098,-1.3109,-1.2967,-1.2966,-1.2966,0,0,-1.2802,-1.2813,-1.2857,-1.287,-1.2888,-1.2888,-1.2898,-1.2913,-1.2916,-1.2964,-1.2944,-1.2973,-1.3026,-1.304,-1.3055,-1.314,-1.3123,-1.3149,-1.3197,-1.3231,-1.3241,-1.325,-1.3281,-1.3292,-1.3156,-1.3156,-1.3156,0,-1.2844,-1.2893,-1.2882,-1.2921,-1.2938,-1.2912,-1.2957,-1.297,-1.2998,-1.301,-1.2989,-1.3054,-1.3065,-1.3126,-1.3147,-1.3159,-1.3171,-1.3148,-1.324,-1.3249,-1.3257,-1.3287,-1.3298,-1.3159,-1.3159,-1.3158,-1.3158,0,-1.2943,-1.2978,-1.3012,-1.3038,-1.3058,-1.31,-1.3096,-1.3117,-1.3107,-1.3109,-1.3159,-1.3171,-1.3201,-1.3215,-1.3206,-1.3275,-1.3263,-1.3241,-1.3205,-1.3273,-1.33,-1.3312,-1.3164,-1.3162,-1.3162,-1.3161,0,0,-1.3055,-1.3074,-1.3086,-1.3098,-1.3116,-1.3143,-1.3183,-1.3212,-1.3231,-1.325,-1.3285,-1.3329,-1.3308,-1.3325,-1.3317,-1.3347,-1.3414,-1.3321,-1.3321,-1.3339,-1.3492,-1.3509,-1.3523,-1.3403,-1.3405,-1.3406,-1.3491,0,-1.3137,-1.3208,-1.3199,-1.3266,-1.3298,-1.3274,-1.3309,-1.3324,-1.3326,-1.3354,-1.3356,-1.3388,-1.3358,-1.3368,-1.3396,-1.34,-1.3445,-1.3394,-1.3436,-1.3437,-1.3433,-1.3537,-1.3556,-1.3635,-1.3501,-1.3503,-1.3504,0,-1.3243,-1.3266,-1.3337,-1.3349,-1.3362,-1.3395,-1.342,-1.3447,-1.3463,-1.3462,-1.348,-1.3467,-1.3508,-1.3469,-1.3525,-1.3491,-1.3507,-1.3511,-1.3514,-1.3519,-1.3476,-1.3546,-1.366,-1.3672,-1.3521,-1.352,-1.3519,0,-1.3319,-1.3367,-1.3415,-1.3426,-1.3442,-1.3465,-1.3473,-1.3487,-1.3504,-1.3527,-1.3538,-1.3565,-1.358,-1.3602,-1.3596,-1.3568,-1.3654,-1.3615,-1.3656,-1.3656,-1.3676,-1.3676,-1.3796,-1.3684,-1.3684,-1.3684,-1.3684,0,-1.3413,-1.3458,-1.345,-1.348,-1.3529,-1.3518,-1.3567,-1.3571,-1.3584,-1.3615,-1.3595,-1.3624,-1.3614,-1.3643,-1.3639,-1.3687,-1.3693,-1.3694,-1.3693,-1.3697,-1.3697,-1.3709,-1.3704,-1.3687,-1.3686,-1.3686,-1.3685,0,-1.3507,-1.3503,-1.3555,-1.3565,-1.3569,-1.3605,-1.3613,-1.3642,-1.3641,-1.368,-1.3689,-1.3689,-1.3722,-1.3718,-1.3754,-1.3751,-1.3811,-1.3803,-1.3806,-1.3805,-1.3846,-1.3843,-1.3979,-1.3997,-1.3873,-1.3874,-1.3875,0,-1.3568,-1.3602,-1.3615,-1.3634,-1.3643,-1.3674,-1.3692,-1.3682,-1.3701,-1.3722,-1.3748,-1.3779,-1.3803,-1.3857,-1.386,-1.3888,-1.3881,-1.3926,-1.3885,-1.3888,-1.3883,-1.3882,-1.3885,-1.3935,-1.3937,-1.3938,-1.3939,0,-1.3677,-1.3674,-1.37,-1.3726,-1.3748,-1.3767,-1.3785,-1.3802,-1.3793,-1.3816,-1.3849,-1.3868,-1.3905,-1.3936,-1.3962,-1.397,-1.3954,-1.3951,-1.3963,-1.3968,-1.3969,-1.397,-1.383,-1.3949,-1.3948,-1.3947,-1.3947,-1.3946,-1.3758,-1.3787,-1.38,-1.383,-1.3842,-1.3859,-1.3887,-1.3889,-1.3916,-1.3946,-1.3937,-1.3975,-1.399,-1.4023,-1.4034,-1.4063,-1.4046,-1.4062,-1.4067,-1.4071,-1.4077,-1.3963,-1.4068,-1.4067,-1.4067,-1.4067,-1.4067,0,-1.3867,-1.3874,-1.3902,-1.3927,-1.3951,-1.3931,-1.395,-1.3971,-1.4004,-1.4019,-1.4043,-1.4081,-1.4111,-1.4116,-1.4144,-1.4167,-1.416,-1.4175,-1.4174,-1.4176,-1.4089,-1.4077,-1.418,-1.418,-1.418,-1.418,-1.418,-1.418,-1.3927,-1.3975,-1.3972,-1.4026,-1.4033,-1.4069,-1.4081,-1.4097,-1.4109,-1.4152,-1.4176,-1.4179,-1.419,-1.4219,-1.4245,-1.4246,-1.4258,-1.4276,-1.4274,-1.4193,-1.4182,-1.4171,-1.416,-1.4278,-1.4278,-1.4358,-1.4359,-1.436]},{"header":{"parameterUnit":"m.s-1","parameterCategory":1,"la1":30.2991,"la2":30.254,"lo1":-89.0895,"lo2":-89.0444,"dy":0.0017,"dx":0.0017,"nx":28,"ny":28,"refTime":"2025-01-06T09:00:00:Z","depth":0,"parameterNumber":3,"parameterNumberName":"V-component_of_WINDS"},"data":[0,0,0,0,0,0,0,0,0,0,0,0,0,0,0,0,0,0,0,0,0,0,0,0,0,0,0,0,0,0,0,0,0,0,0,0,0,0,0,0,0,0,0,0,0,0,0,0,0,0,0,0,0,0,0,0,0,0,-6.21,-6.2101,0,-6.218,-6.2181,-6.2181,-6.2136,-6.2134,-6.2131,-6.2129,-6.2206,-6.221,-6.2214,0,0,0,0,0,0,0,0,0,0,0,0,0,-6.1902,-6.1906,-6.21,-6.2101,-6.2102,-6.2179,-6.2181,-6.2182,-6.2136,-6.2133,-6.2131,-6.2128,-6.2205,-6.221,-6.2215,0,0,0,0,0,0,0,0,0,0,0,0,0,-6.1986,-6.1908,-6.2099,-6.2088,-6.2088,-6.2179,-6.2181,-6.2182,-6.2137,-6.2133,-6.213,-6.2127,-6.2203,-6.2209,-6.2215,-6.232,0,0,-6.2234,-6.2237,0,0,0,0,0,0,0,0,-6.1981,-6.1993,-6.2089,-6.2089,-6.2089,-6.2144,-6.2139,-6.2228,-6.2138,-6.2118,-6.2129,-6.2125,-6.2188,-6.2195,-6.2217,-6.2324,-6.2327,-6.2235,-6.2239,-6.2241,-6.2243,0,0,0,0,0,0,0,-6.1975,-6.1989,-6.2131,-6.209,-6.2091,-6.2078,-6.2086,-6.2156,-6.2171,-6.212,-6.2117,-6.2127,-6.2187,-6.2212,-6.2219,-6.2328,-6.2235,-6.224,-6.2244,-6.2246,-6.2524,-6.2528,0,0,0,0,0,0,-6.1971,-6.1985,-6.2129,-6.2133,-6.2026,-6.2084,-6.2093,-6.213,-6.217,-6.2173,-6.213,-6.2124,-6.2203,-6.2212,-6.2221,-6.2347,-6.2241,-6.2247,-6.2251,-6.2521,-6.2525,-6.2529,0,0,0,0,0,0,-6.1967,-6.1984,-6.2125,-6.2058,-6.2075,-6.2091,-6.2133,-6.2133,-6.2158,-6.2178,-6.2179,-6.2152,-6.22,-6.2213,-6.2296,-6.2349,-6.225,-6.2256,-6.2516,-6.2522,-6.2527,-6.2599,0,0,0,0,0,0,-6.1961,-6.1983,-6.2024,-6.206,-6.2079,-6.2201,-6.2136,-6.2137,-6.2169,-6.2163,-6.2199,-6.2202,-6.2199,-6.2287,-6.2303,-6.2356,-6.226,-6.2512,-6.2519,-6.2525,-6.2592,-6.2606,-6.2618,0,0,0,0,0,-6.1955,-6.204,-6.2027,-6.2044,-6.2131,-6.2204,-6.2215,-6.2211,-6.2173,-6.2214,-6.2227,-6.2201,-6.2341,-6.2296,-6.2313,-6.2369,-6.2508,-6.2517,-6.2525,-6.2586,-6.2603,-6.2618,0,0,0,0,0,0,-6.2009,-6.2045,-6.203,-6.213,-6.2165,-6.2196,-6.2247,-6.223,-6.2274,-6.2266,-6.2258,-6.2267,-6.2354,-6.2369,-6.2319,-6.2472,-6.2418,-6.243,-6.2459,-6.2476,-6.2489,-6.2483,-6.2265,0,0,0,0,0,-6.2033,-6.2091,-6.2118,-6.2203,-6.2222,-6.2232,-6.2263,-6.2258,-6.2292,-6.2306,-6.2325,-6.2358,-6.2409,-6.2443,-6.2492,-6.2594,-6.26,-6.264,-6.2653,-6.2664,-6.2674,-6.2729,-6.2747,-6.2556,-6.2556,-6.2556,0,0,-6.2082,-6.2109,-6.2146,-6.2215,-6.2241,-6.2299,-6.2244,-6.2308,-6.2351,-6.2315,-6.2396,-6.2411,-6.2447,-6.254,-6.2582,-6.2556,-6.2729,-6.2675,-6.2683,-6.2688,-6.2739,-6.2757,-6.2773,-6.2562,-6.2561,-6.256,0,0,-6.2203,-6.2229,-6.2303,-6.2331,-6.2371,-6.2377,-6.2395,-6.243,-6.2439,-6.252,-6.2494,-6.2544,-6.2633,-6.266,-6.2685,-6.2815,-6.2793,-6.2831,-6.29,-6.2954,-6.2969,-6.2982,-6.3028,-6.3045,-6.2841,-6.2842,-6.2842,0,-6.2259,-6.2347,-6.2343,-6.241,-6.2441,-6.2412,-6.2487,-6.2513,-6.2566,-6.2588,-6.2557,-6.2669,-6.2691,-6.279,-6.2822,-6.2844,-6.2863,-6.2827,-6.2967,-6.298,-6.2993,-6.3037,-6.3054,-6.2846,-6.2845,-6.2845,-6.2845,0,-6.2414,-6.2476,-6.253,-6.2585,-6.2622,-6.2692,-6.2697,-6.2734,-6.2725,-6.2734,-6.2816,-6.2842,-6.2896,-6.2918,-6.2909,-6.3016,-6.2999,-6.2968,-6.2914,-6.3015,-6.3057,-6.3073,-6.2852,-6.2851,-6.2849,-6.2848,0,0,-6.2571,-6.2623,-6.2643,-6.2667,-6.271,-6.2757,-6.2825,-6.2878,-6.291,-6.2948,-6.3004,-6.308,-6.3052,-6.3081,-6.3075,-6.3122,-6.3223,-6.3085,-6.3086,-6.311,-6.3342,-6.3365,-6.3384,-6.3208,-6.3211,-6.3214,-6.3338,0,-6.2694,-6.2815,-6.2814,-6.2925,-6.2981,-6.2955,-6.3014,-6.3046,-6.3056,-6.3103,-6.3113,-6.3168,-6.3127,-6.3144,-6.3189,-6.3201,-6.3269,-6.3192,-6.3259,-6.3261,-6.3251,-6.3406,-6.343,-6.3547,-6.3355,-6.3357,-6.3359,0,-6.2854,-6.2899,-6.3017,-6.3051,-6.3075,-6.3128,-6.3177,-6.3224,-6.3258,-6.3262,-6.3295,-6.3281,-6.3348,-6.3292,-6.3384,-6.3332,-6.3359,-6.3369,-6.3373,-6.3379,-6.3317,-6.3416,-6.3584,-6.3602,-6.3385,-6.3383,-6.3381,0,-6.2957,-6.3047,-6.3129,-6.315,-6.3193,-6.3231,-6.325,-6.3281,-6.3313,-6.3355,-6.3376,-6.3425,-6.3451,-6.3488,-6.3487,-6.3447,-6.3581,-6.3525,-6.3585,-6.3585,-6.3614,-6.3612,-6.3789,-6.3632,-6.3631,-6.3631,-6.3631,0,-6.3095,-6.3168,-6.3176,-6.3227,-6.3307,-6.3303,-6.3382,-6.3397,-6.3426,-6.3477,-6.3457,-6.3505,-6.3501,-6.355,-6.3549,-6.3625,-6.3637,-6.3641,-6.364,-6.3643,-6.3643,-6.3661,-6.3653,-6.3636,-6.3635,-6.3634,-6.3633,0,-6.3224,-6.3232,-6.332,-6.3353,-6.3363,-6.3421,-6.3448,-6.3495,-6.3503,-6.3569,-6.3584,-6.3596,-6.3652,-6.3655,-6.3719,-6.3719,-6.3811,-6.3801,-6.38,-6.3799,-6.3859,-6.3853,-6.4053,-6.4079,-6.3905,-6.3906,-6.3908,0,-6.3312,-6.3367,-6.3407,-6.3441,-6.3463,-6.3518,-6.3551,-6.3549,-6.3584,-6.3627,-6.3669,-6.3724,-6.3767,-6.3858,-6.3871,-6.392,-6.3911,-6.3977,-6.3918,-6.3919,-6.3912,-6.3909,-6.3914,-6.3989,-6.3991,-6.3993,-6.3994,0,-6.3466,-6.3468,-6.3517,-6.3569,-6.361,-6.3649,-6.3686,-6.3715,-6.3717,-6.3757,-6.3815,-6.3849,-6.3915,-6.3969,-6.4017,-6.4034,-6.4014,-6.4013,-6.4029,-6.4033,-6.403,-6.4033,-6.3832,-6.4008,-6.4007,-6.4006,-6.4005,-6.4004,-6.3577,-6.3626,-6.3661,-6.3717,-6.3745,-6.378,-6.3826,-6.3841,-6.389,-6.3945,-6.394,-6.4004,-6.4036,-6.4098,-6.4119,-6.4168,-6.4145,-6.4169,-6.4175,-6.4181,-6.4188,-6.4023,-6.4177,-6.4176,-6.4176,-6.4176,-6.4175,0,-6.3731,-6.3753,-6.3804,-6.3858,-6.3901,-6.388,-6.392,-6.3957,-6.4015,-6.4048,-6.4091,-6.4158,-6.421,-6.4227,-6.4278,-6.4313,-6.4306,-6.4327,-6.4324,-6.4328,-6.4206,-6.4186,-6.4332,-6.4332,-6.4332,-6.4332,-6.4332,-6.4332,-6.3816,-6.3897,-6.3903,-6.3997,-6.4017,-6.4082,-6.4106,-6.4138,-6.4164,-6.424,-6.4283,-6.4295,-6.4321,-6.4373,-6.442,-6.4423,-6.4443,-6.4468,-6.4468,-6.4353,-6.4337,-6.4322,-6.4304,-6.4472,-6.4472,-6.4586,-6.4587,-6.4588]}]]